Northeast Philadelphia, PA

2:05 AM EDT on March 26, 2017 (GMT -0400)
Northeast Philadelphia

Weather History for KPNE - February, 2014

Change the Weather History Date:

Wednesday, February 5, 2014

  Actual Average Record
Temperature  
Mean Temperature 34 °F -  
Max Temperature 37 °F 40 °F 57 °F (2006)
Min Temperature 32 °F 24 °F 10 °F (2007)
Degree Days  
Heating Degree Days 30    
Moisture  
Dew Point 31 °F    
Average Humidity 89    
Maximum Humidity 96    
Minimum Humidity 64    
Precipitation  
Precipitation 1.27 in - - ()
Sea Level Pressure  
Sea Level Pressure 29.90 in    
Wind  
Wind Speed 11 mph (NNE)    
Max Wind Speed 22 mph    
Max Gust Speed 31 mph    
Visibility 4 miles    
Events Rain    
Averages and records for this station are not official NWS values.
T = Trace of Precipitation, MM = Missing Value Source: NWS Daily Summary

Daily Weather History Graph

Daily Weather History Graph

Search for Another Location

Airport or City:

Trip Planner

Search our weather history database for the weather conditions in past years. The results will help you decide how hot, cold, wet, or windy it might be!

Date:

Astronomy

Feb. 05, 2014 Rise Set
Actual Time 7:04 AM EST 5:23 PM EST
Civil Twilight 6:36 AM EST 5:52 PM EST
Nautical Twilight 6:04 AM EST 6:24 PM EST
Astronomical Twilight 5:32 AM EST 6:56 PM EST
Moon 10:17 AM EST (2/5) No Moon Set
Length of Visible Light 11h 15m
Length of Day
10h 19m
Waxing Crescent, 39% of the Moon is Illuminated
Feb 5
Waxing Crescent
Feb 6
First Quarter
Feb 14
Full
Feb 22
Last Quarter
Mar 1
New

Hourly Weather History & Observations

Time (EST) Temp. Windchill Dew Point Humidity Pressure Visibility Wind Dir Wind Speed Gust Speed Precip Events Conditions
12:13 AM 32.0 °F 24.2 °F 28.0 °F 85% 30.21 in 2.5 mi ENE 9.2 mph - 0.00 in Rain Light Freezing Rain
12:37 AM 32.0 °F 23.6 °F 28.9 °F 88% 30.22 in 2.5 mi NNE 10.4 mph - 0.00 in Rain Light Freezing Rain
12:48 AM 32.0 °F 23.0 °F 28.4 °F 87% 30.21 in 2.5 mi NE 11.5 mph - 0.01 in Rain Light Freezing Rain
12:54 AM 32.0 °F 23.0 °F 28.9 °F 88% 30.20 in 2.0 mi NE 11.5 mph - 0.02 in Rain Light Freezing Rain
12:59 AM 32.0 °F 22.5 °F 28.9 °F 88% 30.19 in 1.8 mi NE 12.7 mph - 0.02 in Rain Light Freezing Rain
1:05 AM 32.0 °F 22.5 °F 30.0 °F 92% 30.18 in 2.0 mi NE 12.7 mph - 0.03 in Rain Light Freezing Rain
1:17 AM 32.0 °F 22.1 °F 30.0 °F 92% 30.16 in 2.5 mi NE 13.8 mph - 0.04 in Rain Light Freezing Rain
1:45 AM 32.0 °F 22.5 °F 30.0 °F 92% 30.15 in 2.0 mi NE 12.7 mph - 0.07 in Rain Light Freezing Rain
1:54 AM 33.1 °F 23.9 °F 30.0 °F 89% 30.15 in 2.5 mi NE 12.7 mph - 0.10 in Rain Light Freezing Rain
2:54 AM 33.1 °F 24.4 °F 30.0 °F 89% 30.15 in 2.5 mi NNE 11.5 mph - 0.21 in Rain Light Freezing Rain
3:41 AM 33.1 °F 22.6 °F 30.9 °F 92% 30.06 in 3.0 mi ENE 16.1 mph - 0.19 in Rain Rain
3:54 AM 33.1 °F 23.4 °F 30.0 °F 89% 30.06 in 4.0 mi ENE 13.8 mph - 0.20 in Rain Light Rain
4:03 AM 33.1 °F 23.4 °F 30.9 °F 92% 30.08 in 4.0 mi NNE 13.8 mph - 0.01 in Rain Light Freezing Rain
4:12 AM 33.1 °F 23.9 °F 30.9 °F 92% 30.07 in 3.0 mi NNE 12.7 mph - 0.02 in Rain Light Freezing Rain
4:19 AM 33.1 °F 22.6 °F 30.9 °F 92% 30.06 in 2.0 mi NE 16.1 mph - 0.05 in Rain Light Freezing Rain
4:43 AM 33.1 °F 23.4 °F 30.9 °F 92% 30.04 in 3.0 mi NE 13.8 mph - 0.11 in Rain Light Freezing Rain
4:54 AM 34.0 °F 23.8 °F 30.9 °F 89% 30.02 in 3.0 mi NE 16.1 mph - 0.12 in Rain Light Freezing Rain
5:20 AM 34.0 °F 23.0 °F 32.0 °F 92% 29.98 in 5.0 mi NE 18.4 mph - 0.00 in   Overcast
5:54 AM 34.0 °F 22.7 °F 32.0 °F 92% 29.96 in 2.5 mi NE 19.6 mph 24.2 mph 0.01 in Rain Light Rain
6:21 AM 34.0 °F 24.6 °F 32.0 °F 92% 29.99 in 2.0 mi North 13.8 mph - 0.05 in Rain Heavy Rain
6:38 AM 34.0 °F 23.8 °F 32.0 °F 92% 29.98 in 3.0 mi North 16.1 mph - 0.10 in Rain Rain
6:54 AM 34.0 °F 24.2 °F 32.0 °F 92% 29.99 in 4.0 mi North 15.0 mph 23.0 mph 0.14 in Rain Rain
7:16 AM 34.0 °F 23.0 °F 30.9 °F 89% 29.95 in 2.5 mi ENE 18.4 mph 26.5 mph 0.08 in Rain Heavy Rain
7:22 AM 34.0 °F 23.4 °F 30.9 °F 89% 29.93 in 2.0 mi ENE 17.3 mph 26.5 mph 0.15 in Rain Light Freezing Rain
7:27 AM 34.0 °F 24.6 °F 30.9 °F 89% 29.94 in 4.0 mi ENE 13.8 mph 23.0 mph 0.16 in Rain Light Freezing Rain
7:50 AM 33.8 °F 25.8 °F 32.0 °F 93% 29.93 in 5.0 mi ENE 10.4 mph 17.3 mph 0.18 in Rain Light Freezing Rain
7:54 AM 34.0 °F 24.6 °F 30.9 °F 89% 29.94 in 4.0 mi East 13.8 mph 19.6 mph 0.19 in Rain Light Freezing Rain
8:19 AM 34.0 °F 24.2 °F 30.9 °F 89% 29.90 in 5.0 mi ENE 15.0 mph - 0.04 in Rain Light Freezing Rain
8:27 AM 34.0 °F 23.8 °F 30.9 °F 89% 29.88 in 5.0 mi East 16.1 mph - 0.05 in Rain Light Freezing Rain
8:38 AM 34.0 °F 25.0 °F 30.9 °F 89% 29.89 in 9.0 mi ENE 12.7 mph - 0.05 in Rain Light Freezing Rain
8:54 AM 34.0 °F 25.0 °F 30.9 °F 89% 29.86 in 4.0 mi East 12.7 mph - 0.05 in Rain Light Freezing Rain
9:09 AM 34.0 °F 25.0 °F 30.9 °F 89% 29.83 in 6.0 mi ENE 12.7 mph - 0.01 in Rain Light Rain
9:54 AM 34.0 °F 25.0 °F 32.0 °F 92% 29.81 in 5.0 mi ENE 12.7 mph - 0.01 in Rain Light Rain
10:41 AM 35.1 °F 26.9 °F 32.0 °F 89% 29.75 in 2.0 mi East 11.5 mph - 0.02 in Rain Rain
10:54 AM 35.1 °F 27.9 °F 33.1 °F 92% 29.75 in 2.0 mi East 9.2 mph - 0.04 in Rain Rain
11:11 AM 35.1 °F 28.6 °F 33.1 °F 92% 29.74 in 3.0 mi ENE 8.1 mph - 0.01 in Rain Light Rain
11:16 AM 35.1 °F 29.3 °F 33.1 °F 92% 29.73 in 1.8 mi East 6.9 mph - 0.02 in Rain Rain
11:29 AM 35.1 °F 30.1 °F 33.1 °F 92% 29.73 in 3.0 mi East 5.8 mph - 0.05 in Rain Rain
11:40 AM 35.1 °F 30.1 °F 33.1 °F 92% 29.72 in 2.5 mi East 5.8 mph - 0.08 in Rain Rain
11:54 AM 35.1 °F 29.3 °F 33.1 °F 92% 29.72 in 2.0 mi ENE 6.9 mph - 0.10 in Rain Light Rain
12:06 PM 35.1 °F 31.0 °F 33.1 °F 92% 29.71 in 3.0 mi ENE 4.6 mph - 0.02 in Rain Light Rain
12:54 PM 35.1 °F 31.0 °F 32.0 °F 89% 29.71 in 6.0 mi NNE 4.6 mph - 0.05 in Rain Light Rain
12:57 PM 35.1 °F 31.0 °F 33.1 °F 92% 29.71 in 6.0 mi North 4.6 mph - 0.00 in Rain Light Rain
1:08 PM 36.0 °F 33.3 °F 33.1 °F 89% 29.71 in 4.0 mi North 3.5 mph - 0.00 in Rain Light Rain
1:19 PM 35.1 °F - 33.1 °F 92% 29.71 in 2.5 mi Calm Calm - 0.01 in Rain Light Rain
1:30 PM 35.1 °F - 33.1 °F 92% 29.71 in 3.0 mi Calm Calm - 0.01 in Rain Light Rain
1:54 PM 35.1 °F 32.2 °F 33.1 °F 92% 29.70 in 7.0 mi NW 3.5 mph - 0.03 in   Overcast
2:54 PM 36.0 °F 33.3 °F 33.1 °F 89% 29.69 in 7.0 mi WNW 3.5 mph - N/A   Overcast
3:54 PM 36.0 °F 33.3 °F 33.1 °F 89% 29.70 in 4.0 mi WNW 3.5 mph - N/A   Overcast
4:40 PM 36.0 °F 31.1 °F 33.1 °F 89% 29.71 in 2.5 mi West 5.8 mph - N/A   Overcast
4:54 PM 35.1 °F 29.3 °F 34.0 °F 96% 29.72 in 2.5 mi West 6.9 mph - N/A   Overcast
5:16 PM 36.0 °F 28.5 °F 33.1 °F 89% 29.72 in 2.5 mi West 10.4 mph - N/A   Overcast
5:23 PM 36.0 °F 30.3 °F 33.1 °F 89% 29.73 in 3.0 mi West 6.9 mph - N/A   Overcast
5:33 PM 36.0 °F 30.3 °F 33.1 °F 89% 29.74 in 4.0 mi West 6.9 mph - N/A   Overcast
5:54 PM 36.0 °F 29.6 °F 33.1 °F 89% 29.75 in 5.0 mi West 8.1 mph - N/A   Overcast
6:54 PM 37.0 °F 30.4 °F 33.1 °F 86% 29.81 in 6.0 mi West 9.2 mph - N/A   Overcast
7:19 PM 37.0 °F 30.4 °F 33.1 °F 86% 29.81 in 6.0 mi West 9.2 mph - N/A   Overcast
7:54 PM 37.0 °F 31.6 °F 33.1 °F 86% 29.84 in 6.0 mi West 6.9 mph - N/A   Overcast
8:19 PM 37.0 °F 30.4 °F 33.1 °F 86% 29.84 in 6.0 mi West 9.2 mph - N/A   Overcast
8:29 PM 37.0 °F 29.8 °F 33.1 °F 86% 29.85 in 6.0 mi West 10.4 mph - N/A   Overcast
8:54 PM 37.0 °F 29.3 °F 33.1 °F 86% 29.87 in 7.0 mi West 11.5 mph - N/A   Mostly Cloudy
9:29 PM 37.9 °F 30.0 °F 32.0 °F 79% 29.90 in 8.0 mi WNW 12.7 mph - N/A   Overcast
9:41 PM 37.0 °F 29.3 °F 30.9 °F 79% 29.90 in 9.0 mi WNW 11.5 mph 23.0 mph N/A   Overcast
9:54 PM 37.0 °F 28.9 °F 30.9 °F 79% 29.92 in 9.0 mi WNW 12.7 mph 23.0 mph N/A   Overcast
10:54 PM 36.0 °F 25.6 °F 26.1 °F 67% 29.97 in 10.0 mi NW 18.4 mph 31.1 mph N/A   Overcast
11:54 PM 33.1 °F 20.9 °F 21.9 °F 64% 30.03 in 10.0 mi NNW 21.9 mph 29.9 mph N/A   Scattered Clouds